Showing default

HAWK-7A, 56191

Orbit data source: Space-Track

HAWK-7A, 56191 is a payload satellite owned by HawkEye 360 (US) in SSO that was launched on Sat, 15 Apr 2023 UTC via an FALCON 9 launch vehicle from the Air Force Western Test Range (AFWTR). Payload-class satellites include a variety of spacecraft equipped with specific instruments for various scientific and technological missions. These include communications satellites like Starlink; space stations such as the ISS; scientific satellites like the Hubble; Earth observation satellites from companies like Planet Labs, Umbra, and HawkEye 360; GPS; miniature CubeSats for education and research; and military/defense satellites.

Loading next visibility...
Identifier
56191, 2023-054P
Orbit
SSO
Country
Flag of USUS
Related business
Manufacturer
UTIAS-SFL
Mission
Operational Commercial Sigint
Bus & Motor
HAWK2G, Unknown motor
Mass
31 kg wet, 30 kg dry
Launch date (UTC)
2023-04-15 (3 years ago)
Launch vehicle
FALCON 9
Launch site
Air Force Western Test Range (AFWTR)
Object type
Payload
Rocket body
Debris
Shape & HBR
Box + 2 Pan, 1.0 m
Radar Cross Section
0.240 m², Medium (>0.1 m² and < 1m²)

Expand to show TLE details & history
Last TLE update: 17 hours ago

TLE from 17 hours ago
0 HAWK-7A
1 56191U 23054P   26132.92430833  .00003630  00000-0  13977-3 0  9994
2 56191  97.2748  21.1598 0004047 134.8800 225.2769 15.26974697171644
Epoch: 2026-05-12T22:11Z
TLE epoch observation values (Epoch: 2026-05-12T22:11:00.239Z)
Latitude
0.00002°
Longitude
177.7171°
Altitude
489.921 km
Speed
7.619 km/s
True Right ascension
01h 24m 38s
True Declination
0° 00' 00"
Sunlit
Object was in daylight at epoch
Visualization orbit readout
Latitude
Unknown
Longitude
Unknown
Altitude
Unknown
Speed
Unknown
Apparent Right ascension
Unknown
Apparent Declination
Unknown
Sunlit
N/A
Visualization observer readout
Local Sidereal Time
23:16:06
Azimuth
Unknown
Elevation
Unknown
Doppler factor
Unknown
Orbital elements
Apogee altitude
484.589 km
Perigee altitude
479.037 km
Semi-major axis
6,859.95 km
Eccentricity
0.0004
Inclination
97.2748°
RAAN
21.1598°
Arg. of periapsis
134.88°
True anomaly
225.24396°
Mean anomaly
225.2769°
Eccentric anomaly
225.26043°
Mean motion
3.81999 °/min
Orbital period
94.24 mins
BSTAR
0.00013977
Loading maneuver chart data...
Computing Atmospheric mass density...
Loading historical data...
Loading historical data...
Loading historical data...
Loading historical data...
Loading historical data...
Loading historical data...
Loading historical data...

Documentation

Showing up to 5 results
|